Flag for Saint Pierre and Miquelon

Past Weather in Saint-Pierre, Saint Pierre and Miquelon — Yesterday and Last 2 Weeks

Now
54 °F

Passing clouds.


Feels Like: 51 °F
Forecast: 53 / 48 °F
Wind: 8 mph from Northeast

Location: Saint-Pierre
Current Time: Sep 20, 2020 at 1:36:26 pm
Latest Report: Sep 20, 2020 at 1:00 pm
Visibility: N/A
Pressure30.30 "Hg
Humidity: 63%
Dew Point: 41 °F
Location of Saint-PierreLocation

Past Weather in Saint-Pierre — Graph

°F

Saint-Pierre Temperature Yesterday

Maximum temperature yesterday: 57 °F (at 2:00 pm)
Minimum temperature yesterday: 52 °F (at 6:00 am)
Average temperature yesterday: 54 °F

High & Low Weather Summary for the Past Weeks

 TemperatureHumidityPressure
High68 °F (Sep 7, 3:00 pm)100% (Sep 5, 11:00 am)30.39 "Hg (Sep 5, 11:00 am)
Low46 °F (Sep 12, 6:00 am)48% (Sep 16, 12:00 pm)29.68 "Hg (Sep 19, 6:00 am)
Average59 °F84%30.12 "Hg
* Reported Sep 5 11:00 am — Sep 20 11:00 am, Saint-Pierre. Weather by CustomWeather, © 2020

Note: Actual official high and low records may vary slightly from our data, if they occured in-between our weather recording intervals... More about our weather records

Saint-Pierre Weather History for the Previous 24 Hours

Scroll right to see more
 ConditionsComfort  
Time TempWeatherWind HumidityBarometerVisibility
11:00 am
Sun, Sep 20
52 °FSunny.12 mph72%30.27 "Hg10 mi
10:00 am50 °FSunny.15 mph67%30.27 "Hg10 mi
9:00 am46 °FSunny.15 mph82%30.24 "Hg10 mi
8:00 am46 °FSunny.13 mph87%30.24 "Hg10 mi
7:00 am46 °FClear.10 mph87%30.21 "Hg10 mi
6:00 am46 °FClear.14 mph82%30.21 "Hg10 mi
11:00 pm
Sat, Sep 19
52 °FClear.18 mph67%30.09 "Hg10 mi
10:00 pm54 °FClear.15 mph72%30.07 "Hg10 mi
9:00 pm52 °FPassing clouds.9 mph77%30.04 "HgN/A
8:00 pm52 °FPassing clouds.7 mph77%30.04 "HgN/A
7:00 pm55 °FPassing clouds.8 mph67%30.01 "HgN/A
6:00 pm57 °FPassing clouds.9 mph63%29.98 "HgN/A
5:00 pm57 °FPassing clouds.13 mph63%29.95 "HgN/A
4:00 pm57 °FPassing clouds.14 mph67%29.92 "HgN/A
3:00 pm55 °FPassing clouds.15 mph72%29.89 "HgN/A
2:00 pm57 °FSunny.17 mph67%29.89 "Hg10 mi
1:00 pm55 °FSunny.20 mph72%29.86 "Hg10 mi
Weather by CustomWeather, © 2020

See weather overview